Total_Precipitation_Accumulation
0.01 0.06 0.14 0.13 0.09 0.17 0.26 0.24 0.06 0.01 0.00 0.00 0.00 0.00 0.00 0.00 0.02 0.05 0.00 0.00 0.00 0.00 0.00 0.00 0.01 0.01 0.03 0.05 0.06 0.06 0.05 0.02 0.01 0.01 0.03 0.06 0.03 0.01 0.00 0.00 0.00 0.00 0.00 0.00 0.01 0.01 0.01 0.00 0.00
0.01 0.06 0.13 0.10 0.12 0.16 0.22 0.27 0.08 0.03 0.01 0.00 0.00 0.00 0.00 0.00 0.00 0.00 0.00 0.00 0.00 0.00 0.00 0.00 0.00 0.01 0.02 0.03 0.05 0.07 0.06 0.03 0.02 0.04 0.06 0.07 0.04 0.01 0.00 0.00 0.00 0.00 0.00 0.00 0.00 0.01 0.01 0.00 0.00
0.01 0.03 0.10 0.08 0.20 0.19 0.14 0.15 0.03 0.02 0.01 0.00 0.00 0.00 0.00 0.00 0.00 0.00 0.00 0.00 0.00 0.00 0.00 0.01 0.01 0.01 0.02 0.02 0.03 0.07 0.09 0.07 0.05 0.08 0.09 0.07 0.06 0.04 0.02 0.02 0.03 0.02 0.00 0.00 0.00 0.01 0.01 0.00 0.00
0.00 0.01 0.04 0.05 0.16 0.17 0.11 0.08 0.05 0.02 0.01 0.00 0.00 0.00 0.00 0.00 0.00 0.00 0.00 0.00 0.00 0.00 0.00 0.00 0.02 0.02 0.02 0.02 0.02 0.04 0.09 0.09 0.07 0.08 0.11 0.09 0.11 0.12 0.07 0.03 0.04 0.05 0.02 0.01 0.01 0.00 0.00 0.01 0.01
0.00 0.00 0.01 0.03 0.10 0.15 0.13 0.09 0.06 0.03 0.00 0.00 0.00 0.00 0.00 0.00 0.00 0.00 0.00 0.00 0.00 0.00 0.00 0.00 0.02 0.02 0.01 0.02 0.03 0.03 0.05 0.06 0.05 0.05 0.05 0.05 0.08 0.15 0.11 0.07 0.05 0.05 0.03 0.02 0.01 0.01 0.01 0.01 0.01
0.00 0.00 0.00 0.02 0.05 0.10 0.12 0.08 0.06 0.05 0.01 0.01 0.00 0.00 0.00 0.00 0.00 0.00 0.00 0.00 0.00 0.00 0.00 0.00 0.01 0.01 0.01 0.01 0.02 0.04 0.04 0.02 0.02 0.01 0.01 0.01 0.02 0.04 0.06 0.07 0.06 0.04 0.02 0.02 0.01 0.01 0.01 0.02 0.03
0.00 0.00 0.00 0.01 0.02 0.04 0.07 0.05 0.04 0.03 0.01 0.02 0.00 0.01 0.01 0.00 0.00 0.00 0.00 0.00 0.00 0.00 0.00 0.00 0.00 0.01 0.00 0.00 0.01 0.02 0.02 0.02 0.01 0.01 0.00 0.01 0.01 0.03 0.05 0.05 0.05 0.06 0.05 0.03 0.02 0.02 0.03 0.03 0.03
0.00 0.00 0.00 0.00 0.01 0.02 0.02 0.03 0.03 0.02 0.02 0.02 0.01 0.02 0.02 0.00 0.00 0.00 0.00 0.00 0.00 0.00 0.00 0.00 0.01 0.01 0.01 0.01 0.01 0.02 0.02 0.02 0.01 0.01 0.01 0.01 0.01 0.02 0.04 0.04 0.05 0.07 0.08 0.06 0.04 0.03 0.03 0.04 0.03
0.00 0.00 0.00 0.00 0.00 0.01 0.01 0.02 0.03 0.02 0.03 0.03 0.02 0.03 0.02 0.00 0.00 0.00 0.00 0.00 0.00 0.00 0.00 0.00 0.01 0.01 0.01 0.01 0.00 0.01 0.01 0.01 0.01 0.02 0.03 0.02 0.02 0.05 0.11 0.09 0.13 0.12 0.13 0.12 0.09 0.09 0.09 0.08 0.04
0.00 0.00 0.00 0.00 0.00 0.00 0.00 0.01 0.02 0.02 0.05 0.07 0.06 0.06 0.04 0.01 0.00 0.00 0.00 0.00 0.00 0.00 0.00 0.00 0.00 0.01 0.01 0.00 0.00 0.00 0.00 0.01 0.01 0.03 0.10 0.13 0.17 0.14 0.06 0.12 0.19 0.27 0.34 0.27 0.23 0.24 0.17 0.15 0.13
0.00 0.00 0.00 0.00 0.00 0.00 0.00 0.00 0.01 0.02 0.07 0.15 0.23 0.18 0.06 0.01 0.00 0.00 0.00 0.00 0.00 0.00 0.00 0.00 0.00 0.00 0.00 0.00 0.00 0.00 0.00 0.02 0.02 0.03 0.08 0.14 0.13 0.08 0.03 0.06 0.19 0.30 0.38 0.32 0.44 0.51 0.43 0.42 0.39
0.00 0.00 0.00 0.00 0.00 0.00 0.00 0.00 0.01 0.02 0.09 0.23 0.35 0.27 0.11 0.03 0.01 0.00 0.00 0.00 0.00 0.01 0.01 0.00 0.01 0.01 0.01 0.00 0.00 0.00 0.00 0.01 0.01 0.03 0.04 0.09 0.11 0.08 0.09 0.15 0.21 0.29 0.33 0.47 0.44 0.55 0.55 0.47 0.43
0.00 0.00 0.00 0.00 0.00 0.00 0.00 0.00 0.01 0.02 0.06 0.22 0.31 0.22 0.06 0.04 0.03 0.02 0.01 0.01 0.02 0.02 0.02 0.02 0.02 0.03 0.03 0.02 0.02 0.01 0.01 0.02 0.03 0.04 0.06 0.09 0.14 0.19 0.23 0.21 0.24 0.21 0.32 0.46 0.50 0.45 0.57 0.69 0.63
0.00 0.00 0.00 0.00 0.00 0.00 0.00 0.00 0.00 0.02 0.03 0.15 0.25 0.24 0.09 0.06 0.06 0.08 0.12 0.11 0.06 0.06 0.05 0.06 0.07 0.08 0.08 0.08 0.08 0.07 0.06 0.08 0.08 0.10 0.12 0.18 0.24 0.35 0.41 0.41 0.44 0.40 0.48 0.61 0.67 0.66 0.93 0.88 0.83
0.00 0.00 0.00 0.00 0.00 0.00 0.00 0.00 0.01 0.03 0.02 0.09 0.18 0.19 0.10 0.08 0.11 0.12 0.14 0.23 0.28 0.26 0.19 0.17 0.18 0.18 0.21 0.21 0.19 0.22 0.24 0.21 0.21 0.27 0.30 0.38 0.44 0.57 0.64 0.69 0.68 0.76 0.79 0.88 0.90 0.99 1.10 0.90 0.84
0.00 0.00 0.00 0.00 0.00 0.00 0.00 0.00 0.00 0.01 0.01 0.05 0.14 0.27 0.26 0.28 0.30 0.30 0.34 0.49 0.55 0.49 0.43 0.46 0.49 0.46 0.42 0.43 0.45 0.48 0.43 0.39 0.41 0.52 0.56 0.57 0.64 0.77 0.90 0.88 0.86 1.12 1.21 1.25 1.31 1.36 1.33 1.21 1.09
0.00 0.00 0.00 0.00 0.00 0.00 0.00 0.00 0.00 0.01 0.04 0.08 0.15 0.31 0.48 0.64 0.76 0.82 0.82 0.85 0.88 0.94 0.98 0.99 0.90 0.84 0.74 0.73 0.73 0.74 0.74 0.64 0.60 0.68 0.76 0.85 0.84 0.94 1.08 0.98 1.07 1.30 1.40 1.46 1.38 1.55 1.48 1.42 1.33
0.00 0.00 0.00 0.00 0.00 0.00 0.00 0.00 0.01 0.02 0.05 0.14 0.27 0.47 0.69 0.97 1.30 1.40 1.40 1.33 1.24 1.25 1.40 1.43 1.30 1.33 1.39 1.33 1.19 1.13 0.97 0.84 0.83 0.89 0.95 1.00 0.99 1.08 1.25 1.14 1.22 1.42 1.53 1.50 1.54 1.58 1.58 1.47 1.42
0.00 0.00 0.00 0.00 0.00 0.00 0.00 0.00 0.01 0.04 0.07 0.11 0.24 0.49 0.76 0.88 1.16 1.38 1.39 1.44 1.48 1.65 1.69 1.79 2.07 2.12 2.03 1.76 1.41 1.29 1.19 1.16 1.10 1.02 0.96 0.98 0.98 1.07 1.28 1.22 1.34 1.39 1.36 1.40 1.56 1.67 1.49 1.33 1.49
0.00 0.00 0.00 0.00 0.00 0.00 0.00 0.00 0.01 0.03 0.05 0.09 0.18 0.34 0.56 0.85 1.09 1.29 1.34 1.29 1.52 1.94 2.12 2.10 1.99 2.00 1.90 1.79 1.75 1.76 1.77 1.52 1.27 1.16 1.06 1.03 1.10 1.18 1.19 1.20 1.20 1.22 1.31 1.37 1.45 1.64 1.45 1.15 1.33
0.00 0.00 0.00 0.00 0.00 0.00 0.00 0.00 0.02 0.04 0.09 0.21 0.35 0.50 0.63 0.92 1.15 1.24 1.27 1.23 1.32 1.50 1.67 1.76 1.79 1.66 1.59 1.65 1.77 1.81 1.82 1.59 1.38 1.26 1.19 1.12 1.12 1.09 1.10 1.10 1.20 1.36 1.43 1.34 1.35 1.43 1.37 1.11 1.12
0.00 0.00 0.00 0.00 0.00 0.00 0.00 0.01 0.03 0.05 0.18 0.37 0.51 0.66 0.85 1.08 1.04 1.07 1.15 1.11 1.16 1.26 1.35 1.38 1.40 1.38 1.40 1.49 1.58 1.56 1.53 1.41 1.36 1.36 1.25 1.15 1.07 1.04 1.03 1.06 1.09 1.11 1.12 1.10 1.04 1.14 1.25 1.21 1.06
0.00 0.00 0.00 0.00 0.00 0.00 0.01 0.02 0.04 0.08 0.21 0.42 0.57 0.62 0.80 0.90 0.81 0.79 0.85 0.86 0.89 0.93 1.04 1.12 1.20 1.18 1.19 1.21 1.25 1.26 1.23 1.23 1.23 1.16 1.07 0.98 0.92 0.95 0.94 0.90 0.88 0.83 0.83 0.90 0.93 0.99 1.05 1.09 1.05
0.00 0.00 0.00 0.00 0.01 0.03 0.06 0.07 0.09 0.20 0.30 0.38 0.54 0.62 0.74 0.76 0.74 0.80 0.78 0.74 0.76 0.84 0.93 1.00 1.04 1.05 1.05 1.05 1.06 1.06 1.05 1.05 1.04 0.99 0.98 0.92 0.87 0.80 0.79 0.80 0.81 0.77 0.78 0.84 0.88 0.90 0.87 0.92 0.97
0.01 0.01 0.07 0.09 0.12 0.15 0.15 0.12 0.20 0.37 0.41 0.45 0.56 0.70 0.76 0.72 0.66 0.66 0.67 0.68 0.73 0.75 0.74 0.76 0.79 0.82 0.78 0.75 0.79 0.80 0.79 0.77 0.80 0.81 0.79 0.73 0.64 0.61 0.62 0.62 0.69 0.72 0.79 0.79 0.76 0.81 0.85 0.92 0.95
0.03 0.05 0.21 0.20 0.08 0.08 0.11 0.14 0.37 0.55 0.56 0.55 0.62 0.70 0.64 0.56 0.53 0.53 0.52 0.53 0.56 0.53 0.51 0.54 0.58 0.64 0.68 0.67 0.66 0.58 0.53 0.52 0.51 0.60 0.61 0.57 0.53 0.51 0.54 0.62 0.72 0.78 0.81 0.79 0.79 0.76 0.79 0.88 0.93
0.07 0.10 0.12 0.25 0.18 0.14 0.10 0.21 0.41 0.61 0.65 0.71 0.81 0.82 0.70 0.56 0.45 0.41 0.39 0.38 0.36 0.36 0.39 0.46 0.50 0.54 0.59 0.59 0.54 0.49 0.44 0.41 0.41 0.45 0.51 0.52 0.56 0.52 0.55 0.62 0.71 0.83 0.92 0.93 0.89 0.86 0.89 1.01 1.07
0.07 0.07 0.09 0.21 0.23 0.22 0.11 0.24 0.47 0.79 0.85 0.80 0.87 0.76 0.56 0.42 0.33 0.28 0.25 0.24 0.24 0.25 0.30 0.38 0.42 0.41 0.43 0.43 0.42 0.37 0.35 0.36 0.37 0.39 0.41 0.43 0.46 0.48 0.53 0.60 0.66 0.68 0.73 0.76 0.75 0.83 0.92 1.01 1.04
0.08 0.11 0.18 0.26 0.25 0.30 0.28 0.34 0.45 0.61 0.74 0.82 0.77 0.60 0.40 0.28 0.21 0.19 0.19 0.20 0.21 0.21 0.25 0.32 0.39 0.42 0.43 0.42 0.41 0.35 0.30 0.29 0.29 0.31 0.32 0.37 0.39 0.42 0.46 0.51 0.51 0.51 0.52 0.54 0.57 0.67 0.79 0.85 0.82
0.07 0.10 0.19 0.30 0.26 0.26 0.32 0.35 0.25 0.29 0.39 0.44 0.41 0.33 0.27 0.21 0.19 0.21 0.23 0.23 0.21 0.22 0.27 0.34 0.39 0.44 0.48 0.49 0.50 0.46 0.40 0.36 0.33 0.31 0.29 0.30 0.32 0.36 0.39 0.40 0.41 0.39 0.42 0.48 0.54 0.62 0.68 0.73 0.70